SCP
0 0 0 0 0 0 0 0 0 -0 -0 -0 0 0 0 0 0 -0 -0 -0 -0 -0 -0 -0 -0 -0 -0 -0 -0 -0 -0 -0 -0 -0 0 0 0 0 0 0 0 0 0 0
0 0 0 0 0 0 -0 0 0 -0 -0 0 0 -0 0 0 0 -0 -0 -0 -0 -0 -0 -0 -0 -0 -0 -0 -0 -0 -0 -0 -0 -0 -0 0 0 -0 0 0 0 0 0 0
0 0 0 0 0 0 0 0 -0 -0 -0 -0 0 0 0 0 0 -0 -0 -0 -0 -0 -0 -0 -0 -0 -0 -0 -0 -0 -0 -0 -0 -0 -0 -0 -0 0 -0 0 0 0 0 -0
0 0 0 0 0 0 0 0 0 -0 0 0 -0 0 0 -0 0 0 -0 -0 -0 -0 -0 -0 -0 -0 -0 -0 -0 -0 -0 -0 -0 -0 -0 -0 -0 0 -0 -0 0 0 0 -0
0 0 0 0 0 0 0 0 0 0 -0 0 0 0 0 0 0 0 0 -0 -0 -0 -0 -0 -0 -0 -0 -0 -0 -0 -0 -0 -0 -0 -0 -0 0 -0 -0 -0 -0 0 -0 -0
0 0 0 0 0 0 0 0 0 0 0 0 -0 -0 0 0 0 0 0 0 -0 -0 -0 -0 -0 -0 -0 -0 -0 -0 -0 -0 -0 -0 -0 -0 0 0 -0 -0 -0 -0 -0 -0
0 0 0 0 0 0 0 0 0 0 0 0 -0 -0 0 0 0 0 0 0 0 -0 -0 -0 -0 -0 -0 -0 -0 -0 -0 -0 -0 -0 -0 -0 0 -0 0 0 0 0 0 0
0 0 0 0 0 0 0 0 0 0 0 0 0 0 0 0 0 0 0 0 -0 0 0 0 -0 -0 -0 -0 -0 -0 -0 -0 -0 -0 -0 -0 -0 -0 -0 0 0 0 0 0
0 0 0 0 0 0 0 0 0 0 0 0 0 0 0 0 0 0 0 0 0 -0 -0 0 -0 -0 -0 -0 -0 -0 -0 -0 -0 -0 0 -0 -0 -0 -0 -0 0 0 0 0
0 0 0 0 0 0 0 0 0 0 0 0 0 0 0 0 0 0 0 0 0 0 0 0 0 -0 -0 -0 -0 0 0 0 0 -0 -0 -0 -0 -0 0 -0 0 0 0 0
0 0 0 0 0 0 0 0 1 0 0 0 0 0 0 0 0 0 0 0 0 0 0 0 0 0 0 -0 -0 0 0 0 0 0 0 0 0 0 0 -0 0 0 0 0
0 0 0 0 0 0 0 0 0 0 0 0 0 0 0 0 0 0 0 0 0 0 0 0 0 0 0 -0 -0 0 0 0 0 0 0 0 0 0 0 0 0 -0 0 0
0 0 0 0 0 0 0 0 0 0 0 0 0 0 0 0 0 0 0 0 0 0 0 0 0 0 0 0 0 0 0 0 0 0 0 0 0 0 0 0 0 0 0 0
0 0 0 0 0 0 0 0 0 0 0 0 0 0 0 0 0 0 0 0 0 0 0 0 0 0 0 0 0 0 0 0 0 0 0 0 0 0 0 0 0 0 0 0
0 0 0 0 0 0 0 0 0 0 0 0 0 0 0 0 0 0 0 0 0 0 0 0 0 0 0 0 0 0 1 0 0 0 0 0 0 0 0 0 0 0 0 0
0 0 0 0 0 0 0 0 0 0 0 0 0 0 0 0 0 0 0 0 0 0 0 0 0 0 0 0 0 0 1 0 0 0 0 0 0 0 0 0 0 0 0 0
0 0 0 0 0 0 0 0 0 0 0 0 0 0 0 0 0 0 0 0 0 0 0 0 0 0 0 0 1 0 0 0 0 0 0 0 0 0 0 0 0 0 0 0
0 0 0 0 0 0 0 0 0 0 0 0 0 0 0 0 0 0 0 0 0 1 1 1 1 1 0 0 0 0 0 0 1 0 0 0 0 0 0 0 0 0 0 0
0 0 0 0 0 0 0 0 0 0 0 0 0 0 0 0 0 0 1 1 1 1 1 1 0 0 1 0 0 0 0 0 0 1 1 0 0 0 0 0 0 0 0 0
0 0 0 0 0 0 0 0 1 0 0 0 0 0 1 0 1 1 0 0 1 2 2 1 1 1 1 0 0 0 0 0 0 0 0 0 0 1 0 0 0 0 0 0
0 0 0 0 0 0 0 0 0 0 0 0 0 1 1 1 1 1 1 0 1 1 1 0 0 1 1 1 0 0 0 0 0 0 0 0 0 0 1 0 0 0 0 0
0 0 0 0 0 0 1 2 2 3 2 1 1 1 2 2 2 2 2 2 1 0 1 1 1 0 0 0 0 0 0 0 0 0 0 0 0 0 0 0 0 0 0 0
0 0 0 1 1 1 1 1 1 1 1 1 1 1 1 2 1 2 2 2 1 0 1 0 0 0 0 0 0 0 0 0 0 0 0 0 0 0 0 0 0 0 0 0
0 0 0 0 0 0 0 0 0 1 1 1 1 0 1 1 2 1 0 0 0 0 0 0 0 0 0 0 0 0 0 0 0 0 0 0 0 0 0 0 0 0 0 0
0 0 0 0 0 0 0 0 0 0 0 0 1 0 0 0 1 1 0 0 0 0 0 0 0 0 0 1 0 0 0 0 0 0 0 0 0 0 0 0 0 0 0 0
0 0 0 0 0 0 0 0 0 0 0 0 0 1 0 0 0 0 0 0 0 0 0 0 0 0 0 0 0 0 0 0 0 0 0 0 0 0 0 0 0 0 0 0
-0 -0 -0 0 0 0 0 0 0 0 0 0 0 0 0 0 0 0 0 0 0 0 0 0 0 0 0 0 0 0 0 0 0 0 0 0 0 0 0 0 0 0 0 0
Wind_Speed_500mb
48 40 48 43 44 54 54 46 42 36 35 29 24 26 26 30 32 40 50 50 47 46 45 45 43 39 34 30 28 27 25 25 25 27 24 23 24 26 29 27 29 28 30 36
51 48 47 52 50 50 53 49 46 45 37 28 26 24 25 35 30 41 50 54 49 47 48 50 48 45 39 35 33 30 27 27 29 29 28 26 25 26 28 28 26 27 27 24
41 43 48 45 54 53 47 44 44 41 41 30 20 28 18 22 25 38 46 55 56 53 51 52 52 48 44 40 37 34 31 28 33 32 32 29 27 27 26 27 26 23 23 23
35 38 53 37 41 44 47 44 43 43 39 35 34 32 29 35 38 32 40 51 57 55 52 51 50 49 45 43 42 38 34 32 33 37 34 33 31 29 27 27 28 26 22 22
28 35 28 48 30 45 40 42 43 44 43 38 38 39 35 38 38 36 36 44 56 58 55 52 55 53 50 46 44 42 39 36 35 38 39 36 34 33 31 29 28 25 21 20
31 37 49 36 43 29 38 39 41 43 39 36 42 27 20 37 35 36 33 36 47 55 56 57 59 57 55 52 49 47 42 39 36 37 41 39 38 36 33 30 28 26 23 20
31 29 30 34 32 34 39 27 42 52 51 44 33 35 26 14 49 39 36 33 44 53 61 68 67 70 63 56 54 49 44 41 39 38 41 43 42 38 36 32 29 29 26 24
35 30 35 41 31 45 23 6 33 47 50 46 43 40 37 17 13 32 39 37 43 49 55 61 64 71 65 65 55 49 47 45 43 41 40 42 46 41 37 37 34 32 29 26
34 27 10 42 35 42 30 24 20 29 29 35 39 37 31 34 26 28 43 43 40 44 49 54 64 70 69 71 60 55 51 50 47 43 40 41 45 42 39 42 36 34 33 31
28 29 25 20 29 37 32 30 28 25 23 28 29 27 34 26 28 30 44 50 40 44 49 55 62 73 71 60 58 59 56 54 53 49 45 43 40 40 39 40 39 37 37 35
28 14 33 29 39 20 43 31 17 21 24 25 25 29 25 26 29 35 39 45 44 43 47 53 56 63 63 61 62 65 64 60 57 52 52 49 45 43 42 41 42 40 40 38
17 17 14 16 24 16 12 25 21 22 23 25 24 24 21 21 25 30 40 45 44 41 40 47 53 59 64 66 67 71 70 69 64 57 54 49 46 43 44 40 46 46 42 39
28 17 4 20 12 8 10 13 21 31 26 24 21 24 19 17 19 19 25 36 40 41 42 40 49 56 62 67 69 76 78 71 64 60 56 57 52 50 48 56 48 57 56 53
38 12 13 22 23 14 17 24 20 25 24 22 26 17 13 14 13 22 28 27 30 35 38 40 47 52 57 64 72 76 78 74 69 67 61 57 59 55 51 50 57 59 66 64
65 34 28 33 20 25 19 17 17 20 26 30 23 15 14 16 20 20 23 28 29 31 36 42 43 47 49 56 70 75 76 79 77 64 65 60 57 55 54 52 50 52 53 75
41 49 35 38 44 38 38 33 33 35 29 35 30 26 22 22 23 23 26 23 24 30 32 38 42 43 45 50 60 67 73 76 74 73 63 67 61 60 57 57 56 54 64 63
50 40 41 55 54 58 52 44 42 39 41 40 34 26 26 26 24 29 33 27 23 25 32 32 32 35 41 46 54 57 61 65 77 72 70 63 67 61 59 55 54 54 59 64
34 41 48 48 49 47 63 58 55 54 54 53 41 32 31 24 31 38 37 33 27 24 21 20 23 29 35 41 50 49 52 54 61 83 74 70 64 65 58 58 53 50 46 58
47 47 56 60 57 47 41 48 58 61 56 52 50 42 33 32 30 31 33 29 28 25 25 27 31 35 36 37 43 43 44 48 54 63 77 73 64 63 65 58 54 52 49 55
50 50 51 57 56 55 57 56 52 53 57 53 54 57 49 45 34 29 27 27 22 19 28 22 31 38 36 35 47 39 40 41 44 51 58 65 67 63 68 60 51 62 59 51
45 49 52 54 51 53 54 57 62 52 52 52 54 56 53 42 32 27 25 26 22 35 29 33 18 23 27 29 42 45 37 38 38 42 41 57 59 51 54 52 58 61 64 64
8 34 45 38 44 44 23 26 17 17 25 30 47 55 45 38 32 25 17 19 19 24 16 12 18 32 29 33 22 29 28 31 35 37 37 40 48 51 51 48 50 60 68 73
24 18 38 42 39 37 39 36 31 30 39 35 19 29 32 36 32 33 29 22 21 28 19 20 20 20 30 18 20 23 21 23 26 28 31 38 40 48 47 50 63 79 76 70
37 37 37 36 45 45 48 42 41 42 39 40 34 27 4 23 33 37 34 34 29 24 22 25 27 24 18 13 17 19 22 25 28 30 33 44 61 59 58 74 73 75 76 81
47 42 42 43 45 42 40 37 35 37 34 31 30 12 13 4 30 27 26 28 24 22 22 26 29 29 19 18 19 21 22 24 30 33 40 44 48 63 65 66 71 77 73 81
39 34 44 39 35 36 38 29 28 28 23 23 16 6 10 5 20 20 20 23 23 21 18 22 16 18 20 21 22 23 27 31 30 31 36 36 44 45 53 57 66 73 87 88
43 39 38 35 33 34 33 24 17 26 16 8 17 11 9 8 14 13 17 16 18 17 15 16 16 19 20 24 26 25 25 29 32 34 36 43 48 53 57 65 75 92 85 76
Wind_Direction_500mb
226 212 193 206 211 216 212 217 223 230 235 243 201 196 192 171 171 188 188 185 183 187 187 188 188 188 188 184 184 180 176 171 162 152 142 137 132 126 118 116 118 113 109 102
216 225 203 203 210 219 222 218 223 233 244 230 212 232 194 165 176 193 196 191 189 189 189 189 189 188 187 184 184 180 177 174 170 160 156 151 146 138 131 129 125 121 115 118
217 210 224 214 209 212 220 224 221 223 231 240 223 213 222 191 180 201 200 197 195 192 191 190 188 187 187 184 182 182 178 176 174 170 167 162 154 149 143 142 144 140 134 127
210 209 215 221 212 219 218 220 217 230 230 228 237 241 206 233 188 208 204 202 198 195 192 191 189 187 187 185 184 184 182 180 177 177 175 170 167 163 161 154 151 148 144 144
212 208 217 217 224 217 216 222 213 220 226 238 242 224 226 216 199 195 204 204 200 197 193 189 188 186 187 187 187 188 187 186 183 179 181 178 177 176 171 167 165 162 161 160
207 215 212 210 198 224 212 226 210 214 227 227 228 229 216 208 225 189 201 201 198 194 191 190 188 187 187 190 191 191 191 189 186 183 183 184 184 184 180 178 176 174 176 177
212 216 225 207 178 184 214 226 210 214 220 221 222 230 232 258 210 195 201 193 188 189 191 193 189 187 187 192 196 193 191 190 188 186 186 186 187 190 187 184 189 180 186 188
212 201 221 198 197 182 215 256 181 200 210 212 219 228 236 207 184 189 199 189 184 191 194 194 192 191 190 193 196 192 191 190 190 189 183 188 188 189 190 185 190 190 193 194
214 206 185 211 199 178 186 174 160 175 181 196 209 221 212 214 216 217 206 189 187 190 193 195 196 198 197 195 191 192 192 191 190 190 185 191 187 189 187 190 191 194 196 195
213 203 158 177 193 176 202 210 196 205 181 194 199 190 197 184 205 203 196 191 191 188 193 198 201 202 203 195 193 192 193 192 191 192 186 192 190 192 188 193 191 194 195 194
196 230 162 176 192 186 200 193 124 209 194 172 178 182 186 194 207 203 196 194 194 193 197 202 203 204 202 198 194 195 193 194 193 195 193 198 192 196 193 203 193 194 195 194
207 186 223 184 191 194 243 212 182 217 199 177 180 178 185 182 194 202 204 203 200 201 204 205 206 203 203 199 197 195 194 195 197 195 199 199 199 201 201 206 204 191 199 198
288 66 273 280 321 329 277 294 195 222 219 184 187 166 172 175 177 191 204 207 211 208 211 208 206 204 203 202 200 198 197 198 200 198 201 199 203 202 205 203 214 202 198 200
253 276 260 252 252 238 253 246 240 216 218 196 178 182 185 208 186 217 221 222 214 215 211 206 205 207 205 203 203 202 200 201 201 203 205 205 206 207 208 209 210 211 207 206
242 226 246 260 277 279 268 271 278 250 212 220 207 211 210 224 234 230 237 231 219 219 211 206 205 207 205 204 203 203 203 202 205 208 208 210 210 212 212 212 213 212 212 212
245 217 212 245 249 249 261 252 251 254 217 213 216 219 225 235 230 224 221 211 212 212 212 207 204 205 204 203 203 206 207 209 208 209 210 212 212 212 214 214 212 208 212 220
227 244 232 231 239 242 241 252 263 257 234 225 220 231 240 235 226 217 210 208 219 212 212 207 201 201 204 203 203 205 211 213 210 214 214 213 215 215 213 213 215 216 208 210
234 235 238 239 235 240 240 241 243 241 243 223 234 240 235 222 224 215 211 215 216 216 206 203 205 205 207 205 206 204 207 214 215 212 216 217 214 214 214 207 207 217 214 208
230 234 235 237 235 238 243 244 237 235 233 228 225 235 216 207 205 199 202 205 215 212 218 213 213 202 196 205 205 206 209 212 215 215 215 217 219 213 212 214 197 199 210 194
232 240 234 228 225 230 234 237 237 232 228 227 223 202 202 201 193 189 199 210 211 208 208 223 223 209 205 198 203 208 216 215 214 213 214 215 214 211 207 202 211 198 195 168
229 224 222 218 216 222 226 225 225 224 221 210 202 197 196 190 185 187 194 205 223 221 221 230 222 210 222 219 220 213 223 216 215 211 213 211 209 208 202 195 201 183 158 166
256 227 207 191 189 196 191 169 165 158 176 202 198 193 179 171 162 162 172 183 189 186 161 179 185 207 210 217 219 203 221 206 209 207 212 203 198 197 193 181 171 164 165 164
60 122 148 149 138 140 124 121 132 132 125 118 126 129 171 157 161 157 146 137 141 144 141 138 132 143 145 136 177 184 189 186 189 190 194 188 181 182 178 176 175 176 177 180
49 69 90 106 119 119 113 112 106 108 116 114 107 106 135 172 133 147 153 140 137 136 140 135 126 129 119 141 153 164 170 175 179 183 176 184 183 179 183 181 180 184 181 188
38 60 66 83 91 87 84 86 92 95 100 104 100 115 15 181 123 123 138 144 146 147 148 142 133 122 132 141 148 152 157 166 174 171 172 174 168 176 180 181 183 187 187 183
64 55 52 60 73 80 80 80 86 98 103 107 106 111 234 106 104 112 125 129 123 110 135 138 145 133 135 141 142 144 151 164 165 166 171 174 173 175 179 180 190 193 183 169
67 72 69 60 61 77 79 69 67 104 92 113 201 213 206 159 134 122 109 111 118 128 130 128 136 142 143 142 145 147 144 148 159 163 167 171 171 169 177 181 176 169 170 174
Wind_Speed_850mb
48 40 48 43 44 54 54 46 42 36 35 29 24 26 26 30 32 40 50 50 47 46 45 45 43 39 34 30 28 27 25 25 25 27 24 23 24 26 29 27 29 28 30 36
51 48 47 52 50 50 53 49 46 45 37 28 26 24 25 35 30 41 50 54 49 47 48 50 48 45 39 35 33 30 27 27 29 29 28 26 25 26 28 28 26 27 27 24
41 43 48 45 54 53 47 44 44 41 41 30 20 28 18 22 25 38 46 55 56 53 51 52 52 48 44 40 37 34 31 28 33 32 32 29 27 27 26 27 26 23 23 23
35 38 53 37 41 44 47 44 43 43 39 35 34 32 29 35 38 32 40 51 57 55 52 51 50 49 45 43 42 38 34 32 33 37 34 33 31 29 27 27 28 26 22 22
28 35 28 48 30 45 40 42 43 44 43 38 38 39 35 38 38 36 36 44 56 58 55 52 55 53 50 46 44 42 39 36 35 38 39 36 34 33 31 29 28 25 21 20
31 37 49 36 43 29 38 39 41 43 39 36 42 27 20 37 35 36 33 36 47 55 56 57 59 57 55 52 49 47 42 39 36 37 41 39 38 36 33 30 28 26 23 20
31 29 30 34 32 34 39 27 42 52 51 44 33 35 26 14 49 39 36 33 44 53 61 68 67 70 63 56 54 49 44 41 39 38 41 43 42 38 36 32 29 29 26 24
35 30 35 41 31 45 23 6 33 47 50 46 43 40 37 17 13 32 39 37 43 49 55 61 64 71 65 65 55 49 47 45 43 41 40 42 46 41 37 37 34 32 29 26
34 27 10 42 35 42 30 24 20 29 29 35 39 37 31 34 26 28 43 43 40 44 49 54 64 70 69 71 60 55 51 50 47 43 40 41 45 42 39 42 36 34 33 31
28 29 25 20 29 37 32 30 28 25 23 28 29 27 34 26 28 30 44 50 40 44 49 55 62 73 71 60 58 59 56 54 53 49 45 43 40 40 39 40 39 37 37 35
28 14 33 29 39 20 43 31 17 21 24 25 25 29 25 26 29 35 39 45 44 43 47 53 56 63 63 61 62 65 64 60 57 52 52 49 45 43 42 41 42 40 40 38
17 17 14 16 24 16 12 25 21 22 23 25 24 24 21 21 25 30 40 45 44 41 40 47 53 59 64 66 67 71 70 69 64 57 54 49 46 43 44 40 46 46 42 39
28 17 4 20 12 8 10 13 21 31 26 24 21 24 19 17 19 19 25 36 40 41 42 40 49 56 62 67 69 76 78 71 64 60 56 57 52 50 48 56 48 57 56 53
38 12 13 22 23 14 17 24 20 25 24 22 26 17 13 14 13 22 28 27 30 35 38 40 47 52 57 64 72 76 78 74 69 67 61 57 59 55 51 50 57 59 66 64
65 34 28 33 20 25 19 17 17 20 26 30 23 15 14 16 20 20 23 28 29 31 36 42 43 47 49 56 70 75 76 79 77 64 65 60 57 55 54 52 50 52 53 75
41 49 35 38 44 38 38 33 33 35 29 35 30 26 22 22 23 23 26 23 24 30 32 38 42 43 45 50 60 67 73 76 74 73 63 67 61 60 57 57 56 54 64 63
50 40 41 55 54 58 52 44 42 39 41 40 34 26 26 26 24 29 33 27 23 25 32 32 32 35 41 46 54 57 61 65 77 72 70 63 67 61 59 55 54 54 59 64
34 41 48 48 49 47 63 58 55 54 54 53 41 32 31 24 31 38 37 33 27 24 21 20 23 29 35 41 50 49 52 54 61 83 74 70 64 65 58 58 53 50 46 58
47 47 56 60 57 47 41 48 58 61 56 52 50 42 33 32 30 31 33 29 28 25 25 27 31 35 36 37 43 43 44 48 54 63 77 73 64 63 65 58 54 52 49 55
50 50 51 57 56 55 57 56 52 53 57 53 54 57 49 45 34 29 27 27 22 19 28 22 31 38 36 35 47 39 40 41 44 51 58 65 67 63 68 60 51 62 59 51
45 49 52 54 51 53 54 57 62 52 52 52 54 56 53 42 32 27 25 26 22 35 29 33 18 23 27 29 42 45 37 38 38 42 41 57 59 51 54 52 58 61 64 64
8 34 45 38 44 44 23 26 17 17 25 30 47 55 45 38 32 25 17 19 19 24 16 12 18 32 29 33 22 29 28 31 35 37 37 40 48 51 51 48 50 60 68 73
24 18 38 42 39 37 39 36 31 30 39 35 19 29 32 36 32 33 29 22 21 28 19 20 20 20 30 18 20 23 21 23 26 28 31 38 40 48 47 50 63 79 76 70
37 37 37 36 45 45 48 42 41 42 39 40 34 27 4 23 33 37 34 34 29 24 22 25 27 24 18 13 17 19 22 25 28 30 33 44 61 59 58 74 73 75 76 81
47 42 42 43 45 42 40 37 35 37 34 31 30 12 13 4 30 27 26 28 24 22 22 26 29 29 19 18 19 21 22 24 30 33 40 44 48 63 65 66 71 77 73 81
39 34 44 39 35 36 38 29 28 28 23 23 16 6 10 5 20 20 20 23 23 21 18 22 16 18 20 21 22 23 27 31 30 31 36 36 44 45 53 57 66 73 87 88
43 39 38 35 33 34 33 24 17 26 16 8 17 11 9 8 14 13 17 16 18 17 15 16 16 19 20 24 26 25 25 29 32 34 36 43 48 53 57 65 75 92 85 76
Wind_Direction_850mb
226 212 193 206 211 216 212 217 223 230 235 243 201 196 192 171 171 188 188 185 183 187 187 188 188 188 188 184 184 180 176 171 162 152 142 137 132 126 118 116 118 113 109 102
216 225 203 203 210 219 222 218 223 233 244 230 212 232 194 165 176 193 196 191 189 189 189 189 189 188 187 184 184 180 177 174 170 160 156 151 146 138 131 129 125 121 115 118
217 210 224 214 209 212 220 224 221 223 231 240 223 213 222 191 180 201 200 197 195 192 191 190 188 187 187 184 182 182 178 176 174 170 167 162 154 149 143 142 144 140 134 127
210 209 215 221 212 219 218 220 217 230 230 228 237 241 206 233 188 208 204 202 198 195 192 191 189 187 187 185 184 184 182 180 177 177 175 170 167 163 161 154 151 148 144 144
212 208 217 217 224 217 216 222 213 220 226 238 242 224 226 216 199 195 204 204 200 197 193 189 188 186 187 187 187 188 187 186 183 179 181 178 177 176 171 167 165 162 161 160
207 215 212 210 198 224 212 226 210 214 227 227 228 229 216 208 225 189 201 201 198 194 191 190 188 187 187 190 191 191 191 189 186 183 183 184 184 184 180 178 176 174 176 177
212 216 225 207 178 184 214 226 210 214 220 221 222 230 232 258 210 195 201 193 188 189 191 193 189 187 187 192 196 193 191 190 188 186 186 186 187 190 187 184 189 180 186 188
212 201 221 198 197 182 215 256 181 200 210 212 219 228 236 207 184 189 199 189 184 191 194 194 192 191 190 193 196 192 191 190 190 189 183 188 188 189 190 185 190 190 193 194
214 206 185 211 199 178 186 174 160 175 181 196 209 221 212 214 216 217 206 189 187 190 193 195 196 198 197 195 191 192 192 191 190 190 185 191 187 189 187 190 191 194 196 195
213 203 158 177 193 176 202 210 196 205 181 194 199 190 197 184 205 203 196 191 191 188 193 198 201 202 203 195 193 192 193 192 191 192 186 192 190 192 188 193 191 194 195 194
196 230 162 176 192 186 200 193 124 209 194 172 178 182 186 194 207 203 196 194 194 193 197 202 203 204 202 198 194 195 193 194 193 195 193 198 192 196 193 203 193 194 195 194
207 186 223 184 191 194 243 212 182 217 199 177 180 178 185 182 194 202 204 203 200 201 204 205 206 203 203 199 197 195 194 195 197 195 199 199 199 201 201 206 204 191 199 198
288 66 273 280 321 329 277 294 195 222 219 184 187 166 172 175 177 191 204 207 211 208 211 208 206 204 203 202 200 198 197 198 200 198 201 199 203 202 205 203 214 202 198 200
253 276 260 252 252 238 253 246 240 216 218 196 178 182 185 208 186 217 221 222 214 215 211 206 205 207 205 203 203 202 200 201 201 203 205 205 206 207 208 209 210 211 207 206
242 226 246 260 277 279 268 271 278 250 212 220 207 211 210 224 234 230 237 231 219 219 211 206 205 207 205 204 203 203 203 202 205 208 208 210 210 212 212 212 213 212 212 212
245 217 212 245 249 249 261 252 251 254 217 213 216 219 225 235 230 224 221 211 212 212 212 207 204 205 204 203 203 206 207 209 208 209 210 212 212 212 214 214 212 208 212 220
227 244 232 231 239 242 241 252 263 257 234 225 220 231 240 235 226 217 210 208 219 212 212 207 201 201 204 203 203 205 211 213 210 214 214 213 215 215 213 213 215 216 208 210
234 235 238 239 235 240 240 241 243 241 243 223 234 240 235 222 224 215 211 215 216 216 206 203 205 205 207 205 206 204 207 214 215 212 216 217 214 214 214 207 207 217 214 208
230 234 235 237 235 238 243 244 237 235 233 228 225 235 216 207 205 199 202 205 215 212 218 213 213 202 196 205 205 206 209 212 215 215 215 217 219 213 212 214 197 199 210 194
232 240 234 228 225 230 234 237 237 232 228 227 223 202 202 201 193 189 199 210 211 208 208 223 223 209 205 198 203 208 216 215 214 213 214 215 214 211 207 202 211 198 195 168
229 224 222 218 216 222 226 225 225 224 221 210 202 197 196 190 185 187 194 205 223 221 221 230 222 210 222 219 220 213 223 216 215 211 213 211 209 208 202 195 201 183 158 166
256 227 207 191 189 196 191 169 165 158 176 202 198 193 179 171 162 162 172 183 189 186 161 179 185 207 210 217 219 203 221 206 209 207 212 203 198 197 193 181 171 164 165 164
60 122 148 149 138 140 124 121 132 132 125 118 126 129 171 157 161 157 146 137 141 144 141 138 132 143 145 136 177 184 189 186 189 190 194 188 181 182 178 176 175 176 177 180
49 69 90 106 119 119 113 112 106 108 116 114 107 106 135 172 133 147 153 140 137 136 140 135 126 129 119 141 153 164 170 175 179 183 176 184 183 179 183 181 180 184 181 188
38 60 66 83 91 87 84 86 92 95 100 104 100 115 15 181 123 123 138 144 146 147 148 142 133 122 132 141 148 152 157 166 174 171 172 174 168 176 180 181 183 187 187 183
64 55 52 60 73 80 80 80 86 98 103 107 106 111 234 106 104 112 125 129 123 110 135 138 145 133 135 141 142 144 151 164 165 166 171 174 173 175 179 180 190 193 183 169
67 72 69 60 61 77 79 69 67 104 92 113 201 213 206 159 134 122 109 111 118 128 130 128 136 142 143 142 145 147 144 148 159 163 167 171 171 169 177 181 176 169 170 174